User: anonymous   Login
Location: Unspecified
(0.0000°N, 0.0000°E)
Time: 11:14:40
(UTC+02:00)
Language:

NOAA 12 - Orbit

View from above orbital plane
View from above orbital plane
View from above satellite
View from above satellite

Ground track
Ground track

The orbit data is extracted from the following two-line orbital elements,

1 21263U 91032A   16126.51291603  .00000008  00000-0  21516-4 0  9999
2 21263  98.5988 152.9784 0014356  35.9937 324.2207 14.25809793298630
Epoch (UTC): 05 May 2016 12:18:35
Eccentricity: 0.0014356
inclination: 98.5988°
perigee height: 795 km
apogee height: 816 km
right ascension of ascending node: 152.9784°
argument of perigee: 35.9937°
revolutions per day: 14.25809793
mean anomaly at epoch: 324.2207°
orbit number at epoch: 29863

The dashed part of the orbit path shows where the satellite is in the earth's shadow,  

DLR